User: anonymous   Login
Location: Unspecified
(0.0000°N, 0.0000°E)
Time: 23:38:32
(UTC+00:00)
Language:

APRIZESAT 5 - Orbit

View from above orbital plane
View from above orbital plane
View from above satellite
View from above satellite

Ground track
Ground track

The orbit data is extracted from the following two-line orbital elements,

1 37792U 11044E   18140.48581287 +.00000050 +00000-0 +15569-4 0  9990
2 37792 098.3830 299.6521 0059438 058.9147 301.7875 14.75237277363590
Epoch (UTC): 20 May 2018 11:39:34
Eccentricity: 0.0059438
inclination: 98.3830°
perigee height: 602 km
apogee height: 686 km
right ascension of ascending node: 299.6521°
argument of perigee: 58.9147°
revolutions per day: 14.75237277
mean anomaly at epoch: 301.7875°
orbit number at epoch: 36359

The dashed part of the orbit path shows where the satellite is in the earth's shadow,  

DLR